Location: B?dargowo
(53.3916°N, 14.4413°E)
Time: 00:44:01
(UTC+00:00)

SKYMED 2 - Pass Details

Date: 05 February 2023
Orbit: 621 x 623 km, 97.9° (Epoch: 20 March)

Event Time Altitude Azimuth Distance (km) Brightness Sun altitude
Rises 16:51:15 0° 18° (NNE) 2,922 6.7 -9.0°
Reaches altitude 10° 16:53:32 10° 25° (NNE) 2,009 5.8 -9.4°
Maximum altitude 16:57:45 45° 99° (E) 852 3.9 -10.0°
Drops below altitude 10° 17:01:55 10° 173° (S) 1,992 6.2 -10.6°
Sets 17:04:10 0° 179° (S) 2,893 7.1 -10.9°
